Theta_e
343 345 346 347 348 347 347 348 348 348 348 349 349 349 349 348 346 345 345 344 343 342 341 340 339 338 338 337 337 336 333 332 332 331 331 331 328 326 325 324 322 319 318 317 316 315 317 318 319 319 316 311
339 342 344 344 345 345 345 346 346 347 347 347 347 346 345 342 342 343 344 343 343 341 340 340 338 337 337 337 336 333 332 331 331 331 330 330 328 326 324 323 321 319 317 315 314 314 315 317 319 318 314 306
338 336 340 341 341 342 342 343 344 345 343 343 343 341 339 337 337 337 338 340 340 339 336 335 335 336 336 337 335 332 331 330 330 330 330 329 327 326 324 322 320 318 316 314 313 313 315 317 315 313 307 304
337 333 333 336 338 338 340 340 341 341 338 338 335 336 334 333 334 330 332 329 333 333 333 331 326 332 335 334 333 333 331 330 330 329 329 327 326 325 323 321 318 315 314 312 312 313 314 313 311 300 300 303
336 336 331 332 332 333 335 336 337 338 333 330 330 330 328 328 333 333 333 331 331 326 328 323 322 331 333 334 334 334 332 330 329 329 328 327 326 325 322 317 314 313 312 311 311 311 313 312 300 299 300 303
338 337 332 335 334 334 333 331 330 334 335 329 334 327 330 331 328 329 330 329 326 326 324 322 321 325 330 333 330 332 332 330 329 329 327 326 325 324 320 315 303 305 313 311 312 310 310 300 298 298 300 302
337 338 335 334 334 333 330 331 332 334 333 333 333 331 330 327 327 327 326 326 324 323 321 321 320 323 327 330 328 329 330 331 329 328 327 326 325 322 316 304 299 297 297 299 309 307 301 298 298 298 299 300
334 335 334 335 334 333 333 332 333 336 335 334 333 330 329 328 326 325 324 322 319 320 319 319 319 322 324 325 324 323 325 328 330 328 326 325 323 317 307 298 298 297 296 295 295 296 299 298 297 297 297 299
332 332 333 334 335 334 333 332 333 335 335 334 333 330 329 327 326 325 324 322 321 319 318 317 318 320 320 319 317 318 314 316 318 319 316 315 311 305 303 300 298 296 294 295 294 297 297 296 295 297 297 299
331 329 332 333 334 334 333 333 333 335 335 333 332 329 327 326 326 325 324 322 320 318 317 316 316 317 316 314 315 316 314 313 313 310 310 309 307 303 301 300 299 298 297 295 295 296 296 296 296 295 295 298
328 328 331 332 333 333 332 333 332 333 334 334 332 328 326 325 324 323 322 320 319 317 317 316 315 315 315 315 314 314 314 312 311 309 308 307 306 303 299 297 297 297 297 295 296 295 296 296 295 295 295 297
328 327 327 330 330 332 330 331 331 332 333 333 332 329 326 324 325 322 319 318 318 317 316 316 315 315 315 314 314 313 314 312 310 308 307 306 305 303 298 297 296 297 296 295 296 296 295 295 295 294 294 296
327 326 326 325 328 330 326 330 330 331 330 331 331 329 327 325 324 322 320 318 318 316 316 315 315 315 315 314 314 312 311 312 310 308 306 305 305 303 298 296 296 296 295 295 295 296 295 294 294 294 294 295
325 325 325 324 325 327 325 328 326 326 327 329 328 327 326 324 325 323 320 318 317 316 315 315 315 314 314 314 314 313 312 311 311 308 304 302 303 300 297 297 297 295 295 294 295 295 295 295 295 294 294 294
326 324 325 325 323 322 323 324 324 324 325 325 326 327 325 323 323 323 320 319 317 316 315 314 314 314 313 313 313 314 312 309 311 307 304 301 299 297 296 295 295 294 294 294 295 295 294 295 294 294 294 294
325 324 322 322 323 322 322 320 322 322 322 321 323 323 324 323 322 321 319 319 317 317 314 313 313 313 312 312 312 313 311 307 307 305 301 298 297 296 295 295 294 294 294 294 295 293 293 293 294 293 293 294
324 323 321 321 322 323 322 322 321 321 322 322 322 322 322 323 322 320 319 318 318 315 315 313 313 312 312 312 311 311 309 305 302 300 298 297 297 295 294 294 294 294 293 293 293 294 293 292 293 293 294 294
321 321 318 319 320 320 322 319 319 319 320 320 320 321 321 322 321 319 318 317 315 315 314 313 312 312 310 310 309 309 305 304 300 298 297 296 295 296 294 293 293 292 292 292 292 292 292 292 292 293 293 293
317 316 317 316 316 318 318 320 319 317 318 317 318 319 318 320 319 318 317 316 316 314 313 312 310 310 310 308 307 306 302 302 298 297 296 295 294 294 292 292 293 292 292 292 293 292 293 293 291 292 294 294
313 315 314 314 315 317 315 316 318 316 318 317 314 316 317 317 318 317 316 315 314 314 312 311 310 308 307 305 305 303 299 299 297 296 296 295 294 292 291 292 291 291 291 291 292 291 291 292 292 292 293 293
313 314 314 315 315 314 314 315 316 315 316 316 316 314 315 315 317 315 314 313 313 312 311 309 310 306 306 304 303 300 298 297 296 296 296 294 293 294 291 291 290 289 291 291 291 289 290 290 292 292 293 292
312 313 313 313 313 313 315 314 314 314 315 315 313 313 313 315 315 315 313 312 311 310 310 309 308 306 305 303 302 300 297 296 294 295 295 294 291 292 291 290 290 290 290 292 291 289 290 290 290 290 291 292
311 311 311 310 311 311 312 312 313 313 313 311 313 312 312 313 314 314 314 311 311 311 308 307 306 305 303 302 300 299 298 296 294 294 294 294 291 290 291 290 290 290 291 292 291 290 290 290 290 290 290 292
308 308 307 308 308 309 308 310 310 311 310 311 311 310 311 310 312 313 314 312 312 311 309 307 306 305 302 301 300 299 297 295 294 294 292 292 292 290 290 289 290 291 291 289 289 289 288 288 289 289 290 290
305 305 305 305 304 303 304 305 306 308 308 308 307 308 309 308 309 311 312 311 310 310 308 307 304 304 302 300 300 299 299 297 295 294 294 292 292 291 289 288 289 291 291 290 287 287 286 287 287 289 289 289
304 303 302 302 301 302 303 304 304 304 304 304 305 305 306 306 306 308 308 308 308 307 306 305 303 302 302 300 300 299 298 296 295 293 292 291 289 290 291 289 290 291 291 287 287 286 285 284 285 286 288 288
300 302 302 302 300 301 300 301 301 301 301 302 302 302 302 302 302 302 302 303 303 305 305 304 302 300 300 300 300 299 297 295 294 293 293 291 292 289 288 289 291 291 292 287 285 284 284 281 283 285 285 285
299 299 300 300 300 300 301 300 299 300 300 300 300 301 300 300 299 299 299 299 299 300 302 303 302 301 299 299 298 299 298 296 295 293 292 292 292 291 289 288 289 291 290 287 288 283 284 281 281 280 283 284
298 298 298 298 299 298 298 299 298 297 297 297 296 297 298 299 298 298 298 297 297 298 299 299 300 300 298 298 297 298 297 296 296 295 294 293 292 290 291 289 288 290 289 288 292 288 282 280 281 282 281 283
297 296 296 296 295 294 294 294 294 294 294 296 295 297 296 297 297 297 296 296 297 296 296 297 297 298 297 297 298 297 297 297 295 295 294 293 293 291 291 290 288 288 291 289 289 287 287 286 284 281 281 282
295 294 294 294 294 293 293 292 293 294 295 294 294 294 296 296 296 296 296 296 294 295 295 295 295 295 296 295 295 296 296 295 295 295 294 294 293 292 292 288 288 288 290 289 288 289 288 288 285 285 284 282
Wind_Speed
15 15 15 15 15 14 14 13 12 12 11 10 10 9 10 10 12 12 15 14 14 14 13 12 10 9 8 9 8 8 7 7 6 7 8 11 9 8 7 7 6 6 5 6 7 7 7 8 8 7 5 5
14 14 14 14 14 14 13 13 12 12 11 10 9 9 9 9 11 11 11 13 13 13 11 10 10 10 8 9 10 8 8 7 7 8 8 11 9 8 8 7 7 6 6 6 7 7 7 7 6 6 6 4
11 14 14 13 13 13 13 12 12 11 10 10 9 9 9 9 10 10 9 11 11 10 9 9 9 9 9 9 9 7 8 7 8 7 9 10 9 8 8 8 7 6 6 7 7 7 7 6 6 6 5 4
8 11 14 13 12 12 12 12 11 11 10 11 10 10 10 11 8 8 8 11 9 10 10 9 7 8 6 8 7 7 9 8 7 8 9 9 8 8 8 8 7 6 6 7 6 6 6 6 6 4 4 5
8 9 12 11 12 12 12 11 11 11 11 10 10 10 10 10 8 7 6 9 7 11 9 10 10 8 7 6 2 6 8 9 8 8 8 8 8 8 8 7 6 4 5 6 6 5 5 5 4 3 5 5
7 7 9 8 7 8 9 9 9 9 7 7 6 10 8 7 7 6 6 7 7 7 9 10 12 10 9 7 4 4 9 9 8 9 8 8 8 8 9 7 3 2 4 4 4 4 5 3 2 3 5 4
7 8 7 8 8 7 8 8 8 7 7 5 6 6 6 7 6 7 7 7 7 7 10 10 12 12 10 9 7 4 8 8 8 9 8 8 8 9 8 4 2 1 2 1 2 3 2 1 1 3 4 4
7 8 8 8 7 7 7 7 7 7 7 7 7 7 6 6 6 6 6 8 13 10 7 8 11 12 11 10 9 7 6 8 7 9 9 9 9 7 4 2 1 1 1 1 0 0 0 1 2 3 4 4
8 8 8 8 8 8 7 7 7 7 7 7 7 8 7 6 6 6 6 6 6 6 6 6 6 7 6 6 5 7 4 5 5 6 4 4 7 4 4 3 2 2 2 2 1 1 2 2 2 3 3 4
8 7 7 8 8 8 7 8 8 7 7 7 8 7 7 7 7 7 6 6 6 6 6 6 6 6 6 5 5 5 6 6 6 5 6 6 6 5 4 4 4 4 4 3 2 3 2 2 2 3 4 4
7 7 7 7 7 9 8 7 8 8 8 7 7 7 7 7 6 6 6 6 7 7 6 7 6 6 6 6 6 6 7 6 6 6 6 6 6 5 4 3 4 4 3 4 4 4 3 3 3 3 3 4
7 6 6 7 7 8 8 8 8 8 8 8 8 7 7 7 7 7 6 7 7 7 7 7 7 6 6 6 6 6 6 7 6 6 6 6 5 5 4 3 4 5 4 4 4 4 4 4 4 4 4 4
6 6 6 6 7 8 7 8 7 7 7 8 7 7 8 7 8 7 7 8 7 7 7 7 7 7 7 6 6 6 6 7 7 7 7 6 6 6 4 5 4 4 4 4 4 5 4 4 4 4 4 4
6 6 6 6 6 7 6 6 6 6 7 7 7 7 7 8 7 7 7 7 7 8 8 7 7 7 7 7 7 7 8 7 8 7 6 6 6 6 5 6 5 5 5 4 4 5 4 4 5 4 4 4
6 5 6 6 5 5 6 6 6 6 6 6 7 7 6 7 7 8 7 8 8 7 8 7 7 7 7 7 7 7 7 6 7 7 7 7 7 6 7 7 5 6 6 5 4 4 4 5 4 4 3 3
5 5 5 4 4 5 5 4 5 6 6 7 7 6 7 7 6 6 7 8 8 8 7 7 8 7 7 7 6 7 6 6 6 7 6 6 6 6 6 6 5 5 6 5 6 4 4 4 4 4 4 4
6 5 4 5 5 4 5 5 5 6 6 6 6 6 6 7 6 6 6 7 8 8 7 7 7 7 7 7 7 6 6 6 5 6 6 6 5 6 5 5 5 4 5 6 5 5 4 4 4 4 4 4
5 4 3 3 4 4 5 5 5 5 4 5 5 5 6 6 6 6 6 7 6 6 6 6 7 7 7 6 7 7 6 7 6 7 6 7 6 6 6 6 6 6 6 4 4 5 4 4 4 5 5 4
4 3 3 3 3 3 4 4 4 4 4 4 4 5 5 5 6 6 6 6 8 6 6 6 6 6 6 6 6 7 6 7 6 7 7 7 7 5 6 6 6 6 6 6 6 5 5 5 4 4 5 5
3 2 3 3 4 3 3 3 3 3 3 4 3 4 4 4 5 5 5 6 6 7 6 7 6 6 5 5 6 6 5 5 7 6 6 6 7 7 6 6 5 5 6 5 5 3 4 4 3 5 5 5
5 6 5 4 4 3 3 4 3 3 3 3 4 4 4 4 5 4 4 5 5 7 6 6 6 6 6 5 6 6 5 6 5 6 6 4 5 7 7 6 6 4 6 6 4 4 4 4 4 4 5 5
6 6 7 6 6 6 6 5 4 3 4 3 4 4 4 4 5 5 4 5 5 5 5 6 6 5 6 6 6 7 6 7 4 4 6 6 4 5 6 6 7 6 5 5 5 4 4 3 3 4 4 3
7 6 6 6 7 7 6 6 7 6 7 6 5 3 2 3 4 6 5 5 5 6 6 6 6 6 6 6 7 7 7 6 5 5 5 7 6 3 6 8 6 6 6 5 4 3 1 2 3 3 3 4
8 7 7 7 6 7 6 6 6 7 6 6 6 4 4 2 1 1 3 4 5 6 6 5 6 7 6 6 7 7 7 7 7 9 7 7 7 6 2 2 6 6 7 5 5 3 3 2 1 3 3 4
8 7 7 7 7 4 5 5 5 6 6 7 6 5 4 4 2 0 0 1 3 4 5 5 5 5 5 5 6 7 9 8 8 7 8 8 6 8 5 4 4 6 8 9 3 3 2 2 2 1 1 3
6 5 3 5 4 6 6 7 7 6 6 6 6 6 6 5 5 4 3 2 1 1 2 3 4 5 6 6 7 7 5 5 6 6 5 5 5 5 9 7 8 8 9 3 8 7 3 0 2 2 2 2
6 5 6 6 4 4 3 3 4 5 4 5 6 6 5 5 4 3 3 4 3 1 0 1 2 3 3 5 5 5 5 5 6 7 8 8 8 6 3 3 6 10 11 7 4 3 5 3 4 3 3 5
7 8 7 7 7 7 7 4 4 6 7 7 7 7 5 5 4 4 3 3 3 2 1 1 1 1 1 3 3 5 6 6 7 6 6 7 8 7 6 4 8 9 10 6 11 4 6 4 4 2 10 9
8 10 10 9 10 9 9 9 9 7 7 5 4 3 5 5 4 4 4 4 4 3 3 3 1 0 1 2 3 3 4 5 7 8 8 9 8 8 9 8 5 8 7 8 12 8 6 2 1 7 2 5
9 9 10 10 10 9 8 8 8 8 6 5 3 1 2 3 4 4 4 4 4 4 4 4 4 1 0 2 3 3 5 5 4 5 6 7 8 9 8 8 6 6 9 8 9 5 4 6 8 6 4 5
8 10 9 10 8 7 7 7 6 5 6 7 6 2 3 1 2 2 3 4 4 4 4 4 4 4 2 2 3 4 4 5 5 6 7 6 6 8 8 4 7 9 9 7 8 8 8 1 0 6 8 6
Wind_Direction
189 191 190 187 189 192 191 191 192 197 204 209 211 211 207 199 184 193 180 174 172 168 168 165 162 166 173 183 189 199 201 181 166 170 151 124 131 136 133 129 118 103 92 86 77 72 62 45 38 51 67 57
190 193 193 192 192 194 192 190 190 191 196 202 208 211 207 193 185 196 184 178 175 173 166 163 165 167 178 199 209 192 164 169 173 154 167 130 136 140 142 136 127 120 114 104 95 87 69 49 38 54 57 62
194 192 195 193 194 195 193 190 190 192 190 193 199 200 196 187 185 195 185 176 167 167 162 161 160 172 186 201 210 164 160 165 174 163 143 139 140 145 144 138 131 129 119 108 101 87 65 50 53 57 58 69
188 194 193 193 192 194 192 190 191 191 190 189 190 193 186 180 178 179 167 163 163 159 158 158 157 175 182 192 188 180 169 171 185 169 145 141 145 152 147 137 129 130 122 104 92 77 58 49 56 53 67 78
192 193 192 192 191 191 191 190 190 191 190 188 190 187 184 169 166 168 167 169 166 159 160 159 162 165 172 181 204 167 163 181 184 177 149 146 151 155 138 118 117 116 100 89 79 61 46 33 42 59 80 80
193 188 189 189 189 191 191 190 189 190 188 188 187 186 177 168 166 163 163 166 162 160 161 160 160 161 167 172 114 170 164 176 191 179 171 160 159 157 116 97 67 50 70 73 67 41 22 19 23 60 80 83
193 187 184 188 186 185 186 186 185 184 184 182 183 181 175 173 168 164 159 160 161 160 164 164 163 163 164 157 134 143 155 166 188 183 177 171 171 128 111 94 96 82 65 57 37 34 9 48 52 61 78 82
191 189 184 188 185 182 183 183 183 182 180 181 182 179 174 174 168 162 159 160 159 155 159 167 165 164 162 149 141 145 153 168 187 167 181 180 144 117 106 117 132 120 123 202 337 349 290 157 68 83 95 96
195 190 184 188 188 186 184 184 182 184 182 182 183 178 174 172 165 162 159 156 155 156 153 155 162 163 158 147 144 140 141 137 139 134 141 115 107 132 141 141 186 178 183 226 215 240 217 128 108 96 99 107
195 182 187 189 190 187 189 186 184 186 187 185 183 176 174 168 168 165 161 160 158 154 156 157 161 165 156 149 153 144 145 139 132 120 121 131 140 162 176 179 194 204 182 184 198 196 182 122 111 114 104 112
187 196 192 189 186 186 192 187 186 190 189 188 181 175 173 170 175 168 161 162 161 161 163 164 165 163 162 159 157 160 148 150 143 139 142 146 159 175 203 212 205 199 177 156 161 153 140 141 128 113 112 122
191 193 186 192 187 194 188 185 194 193 192 185 184 176 177 177 173 165 162 166 166 169 164 169 168 162 163 161 163 161 156 151 149 148 151 156 163 179 208 211 185 147 145 154 139 129 131 131 130 133 131 132
191 188 181 180 188 195 186 191 194 192 189 192 188 180 177 177 177 174 166 169 175 160 172 167 167 166 167 162 164 159 170 163 160 159 161 166 174 183 195 192 169 139 136 138 138 138 143 144 141 139 134 125
182 189 192 184 192 195 183 196 187 182 187 193 187 192 183 184 180 179 171 171 169 167 172 169 168 168 168 169 168 169 175 180 165 166 164 168 177 181 187 184 175 145 146 145 154 148 156 158 155 156 152 136
192 174 194 197 180 169 190 193 178 185 187 187 192 193 190 185 185 177 171 171 172 173 166 168 168 176 169 172 183 179 176 174 175 164 172 175 174 179 181 182 170 154 152 160 164 169 158 172 150 149 144 124
188 187 189 191 182 181 179 174 183 184 182 187 191 186 187 186 189 182 176 170 172 172 168 168 171 171 175 184 182 184 169 169 174 170 169 167 171 172 169 166 167 160 147 159 172 165 164 169 146 146 135 111
192 182 167 165 184 186 170 172 172 179 182 186 186 182 182 185 183 184 170 179 172 170 169 167 168 174 183 176 172 180 172 160 163 160 160 171 161 159 158 156 171 154 148 149 171 161 171 157 150 151 126 127
170 180 164 149 164 170 168 171 171 175 172 174 179 178 182 180 178 180 170 164 168 165 165 170 173 172 179 175 172 168 163 167 166 164 162 169 159 168 164 174 173 159 159 169 159 164 173 158 166 148 135 147
160 154 140 130 137 157 167 164 169 169 149 154 165 161 175 175 174 176 162 163 160 169 165 167 173 177 178 164 162 163 174 163 172 162 171 161 167 165 170 172 175 168 165 162 169 179 169 167 163 142 148 148
77 106 114 104 119 122 136 137 148 159 157 145 128 136 155 169 167 165 155 155 156 160 168 168 172 175 150 159 154 161 164 160 171 172 166 178 159 161 183 168 177 162 156 160 168 175 166 173 159 144 142 148
49 53 54 53 59 81 90 97 106 108 109 106 111 120 138 145 152 153 140 146 154 155 162 164 166 162 160 153 157 159 166 171 167 164 169 177 183 167 170 176 160 160 154 160 166 161 163 172 152 149 154 154
52 46 50 46 50 50 54 51 58 66 83 90 114 121 139 149 149 142 131 139 146 151 159 161 163 162 161 159 158 161 165 179 157 163 161 175 196 170 153 177 168 168 158 149 152 158 169 168 148 165 158 162
42 40 40 45 46 48 40 38 42 41 43 30 42 60 125 142 143 147 136 141 149 152 157 157 161 166 171 165 161 162 170 165 165 166 180 175 186 183 182 171 180 163 146 134 130 128 125 113 148 171 162 158
27 30 34 33 18 38 33 37 41 41 48 44 53 42 39 46 71 115 136 145 158 157 160 163 174 178 172 171 164 168 173 182 180 183 179 192 177 178 183 172 157 140 127 92 83 73 38 35 91 128 158 161
41 36 25 26 24 22 16 34 39 41 34 46 38 38 43 40 39 54 78 99 136 167 166 175 168 171 177 172 177 180 192 189 191 188 182 180 179 170 173 187 175 167 138 129 73 26 29 12 348 7 100 185
53 48 76 84 47 59 34 33 41 29 27 48 52 47 41 34 21 21 17 20 45 92 158 160 165 182 185 178 192 198 189 184 189 180 182 165 186 206 180 190 179 176 131 176 169 155 191 342 325 302 310 252
37 31 34 53 40 60 70 51 62 70 50 58 58 46 48 49 43 35 19 12 16 12 327 231 168 206 196 194 187 181 189 189 194 193 187 182 185 199 235 185 190 183 193 163 132 105 99 219 188 296 307 262
32 45 50 53 46 31 58 43 14 34 25 26 32 25 22 29 34 33 23 12 10 360 352 323 256 300 207 220 206 199 194 194 204 198 196 195 204 176 187 199 208 210 195 143 140 185 201 192 140 244 238 211
31 39 41 34 36 39 30 26 25 22 14 15 21 17 8 349 14 21 11 358 353 352 330 344 343 137 232 249 239 226 219 208 210 205 202 198 197 192 192 211 211 221 223 208 200 154 107 54 262 219 226 142
40 50 54 48 45 36 31 31 23 17 1 4 12 342 314 359 10 17 9 3 353 344 341 327 329 354 167 222 225 223 228 227 233 229 222 213 205 208 218 204 193 213 235 235 242 237 223 153 177 179 207 125
35 50 53 60 63 60 52 42 16 8 17 10 347 355 33 356 354 22 11 341 1 352 341 334 327 324 309 233 229 225 229 236 227 226 222 220 217 217 219 194 202 209 215 238 265 260 261 348 138 147 132 205